Погода в Бегичевом

Россия / Липецкая область     53°34′09″N   38°54′35″E
темп.,
°C
ветер,
м/с
пор.,
м/с
влажн.,
%
обл.,
%
осадки,
мм/ч
давл.,
гПа
погр.,
м
17 мая, вт
вт1700:00+5з510885 0.0 1008245
03:00+4з512915 0.0 1007367
06:00+4з61290100 0.0 1006532
09:00+6з71287100 0.1 1005972
12:00+8зсз81381100 0.4 10041444
15:00+6зсз71193100 0.9 10051038
18:00+5зсз71294100 0.6 1005670
21:00+6зсз61296100 1.3 1005461
18 мая, ср
ср1800:00+7зсз61196100 0.4 1004489
03:00+7ссз61095100 1.6 1005599
06:00+7с5997100 0.6 1007576
09:00+7с6893100 0.8 1009714
12:00+8с4985100 0.1 1012693
15:00+11с476755 0.1 10121433
18:00+12ссз586293 0.1 1013830
21:00+9ссз51173100 0.1 1015493
19 мая, чт
чт1900:00+6сз4109060 0.0 1017309
03:00+4сз379154 0.0 1018170
06:00+5зсз498418 0.0 1018254
09:00+11з7106475 0.0 1016996
12:00+14зсз81155100 0.0 10151986
15:00+13сз8116381 0.4 10151487
18:00+12ссз597364 0.4 10161141
21:00+8сз228197 0.4 101720
20 мая, пт
пт2000:00+9з358399 0.1 1016165
03:00+8зсз368821 0.2 1016178
06:00+7ссз35915 0.1 1017186
09:00+10ссв447124 0.2 1018792
12:00+11ссв445877 0.2 10181590
15:00+11ссв4458100 0.3 10181245
18:00+10ссв3357100 0.0 10171134
21:00+7в2265100 0.0 101711
21 мая, сб
сб2100:00+6вюв3468100 0.0 101656
03:00+5вюв3766100 0.0 1014158
06:00+6в4867100 0.0 1013291
09:00+8в6861100 0.0 1012731
12:00+11вюв6853100 0.0 10111807
15:00+11всв585897 0.3 10111593
18:00+11св586122 0.6 10111237
21:00+7ссв4117821 0.7 1012335